Location: Carri�res
(48.9069°N, 2.1792°E)
Time: 13:51:06
(UTC+00:00)

CZ-4B R/B - Pass Details

Date: 17 January 2021
Orbit: 387 x 458 km, 97.6° (Epoch: 25 February)

Event Time Altitude Azimuth Distance (km) Brightness Sun altitude
Exits shadow 18:43:27 10° 351° (N) 1,583 4.2 -22.1°
Maximum altitude 18:46:20 27° 293° (WNW) 906 3.5 -22.6°
Drops below altitude 10° 18:49:13 10° 233° (SW) 1,569 4.9 -23.1°
Sets 18:51:24 0° 221° (SW) 2,422 5.8 -23.4°
